TimeCST,TemperatureF,Dew PointF,Humidity,Sea Level PressureIn,VisibilityMPH,Wind Direction,Wind SpeedMPH,Gust SpeedMPH,PrecipitationIn,Events,Conditions,WindDirDegrees,DateUTC
12:56 AM,25.2,25.2,100,30.30,10.0,Calm,Calm,-,N/A,,Clear,0,2012-12-12 06:56:00
1:56 AM,25.2,24.1,96,30.30,10.0,Calm,Calm,-,N/A,,Clear,0,2012-12-12 07:56:00
2:56 AM,24.1,22.1,92,30.31,10.0,Calm,Calm,-,N/A,,Clear,0,2012-12-12 08:56:00
3:56 AM,24.1,24.1,100,30.31,10.0,Calm,Calm,-,N/A,,Clear,0,2012-12-12 09:56:00
4:56 AM,25.2,23.0,91,30.31,10.0,Calm,Calm,-,N/A,,Clear,0,2012-12-12 10:56:00
5:56 AM,26.1,24.1,92,30.34,10.0,Calm,Calm,-,N/A,,Clear,0,2012-12-12 11:56:00
6:56 AM,25.2,22.1,88,30.36,10.0,Calm,Calm,-,N/A,,Clear,0,2012-12-12 12:56:00
7:56 AM,29.1,27.1,92,30.36,10.0,Calm,Calm,-,N/A,,Clear,0,2012-12-12 13:56:00
8:56 AM,34.9,29.1,79,30.38,10.0,Calm,Calm,-,N/A,,Clear,0,2012-12-12 14:56:00
9:56 AM,39.9,29.1,65,30.37,10.0,NE,10.4,-,N/A,,Clear,40,2012-12-12 15:56:00
10:56 AM,43.0,26.1,51,30.35,10.0,NE,11.5,-,N/A,,Clear,40,2012-12-12 16:56:00
11:56 AM,45.0,27.1,50,30.33,10.0,NE,8.1,-,N/A,,Clear,50,2012-12-12 17:56:00
12:56 PM,47.8,27.1,45,30.32,10.0,NE,8.1,-,N/A,,Clear,50,2012-12-12 18:56:00
1:56 PM,50.0,24.1,36,30.31,10.0,NE,9.2,-,N/A,,Clear,50,2012-12-12 19:56:00
3:56 PM,45.9,25.2,44,30.33,10.0,NNE,5.8,-,N/A,,Clear,20,2012-12-12 21:56:00
4:56 PM,43.9,27.1,52,30.33,10.0,Calm,Calm,-,N/A,,Clear,0,2012-12-12 22:56:00
5:56 PM,36.9,27.1,68,30.34,10.0,Calm,Calm,-,N/A,,Clear,0,2012-12-12 23:56:00
7:56 PM,31.1,26.1,82,30.35,10.0,Calm,Calm,-,N/A,,Clear,0,2012-12-13 01:56:00
8:56 PM,31.1,26.1,82,30.34,10.0,Calm,Calm,-,N/A,,Clear,0,2012-12-13 02:56:00
9:56 PM,31.1,25.2,79,30.35,10.0,Calm,Calm,-,N/A,,Clear,0,2012-12-13 03:56:00
10:56 PM,31.1,26.1,82,30.36,10.0,Calm,Calm,-,N/A,,Clear,0,2012-12-13 04:56:00
11:56 PM,29.1,25.2,85,30.36,10.0,Calm,Calm,-,N/A,,Clear,0,2012-12-13 05:56:00